Date,TemperatureHighF,TemperatureAvgF,TemperatureLowF,DewpointHighF,DewpointAvgF,DewpointLowF,HumidityHigh,HumidityAvg,HumidityLow,PressureMaxIn,PressureMinIn,WindSpeedMaxMPH,WindSpeedAvgMPH,GustSpeedMaxMPH,PrecipitationSumIn
2014-9-18,89.3,81.5,75.9,80.1,76.8,72.8,90,86,72,29.91,29.83,5,2,10,0.00
2014-9-19,84.9,78.4,72.4,78.4,74.3,69.3,90,87,77,29.96,29.85,8,2,19,0.00
2014-9-20,82.0,75.7,70.9,76.1,71.8,67.8,90,88,76,29.99,29.90,8,4,21,0.00
2014-9-21,86.5,78.3,71.8,73.9,71.6,68.7,90,81,57,30.00,29.91,6,2,12,0.00
2014-9-22,88.9,77.2,72.4,77.8,72.8,69.3,90,87,67,29.99,29.87,11,3,21,0.00
2014-9-23,78.8,72.1,65.4,73.4,68.2,62.4,90,88,76,30.05,29.96,9,5,19,0.00
2014-9-24,79.0,72.2,66.2,70.5,67.2,63.2,90,84,73,30.17,30.01,13,5,24,3.09
2014-9-25,72.8,68.1,65.0,68.6,64.9,62.0,90,89,86,30.19,30.08,16,4,19,0.00
2014-9-26,106.0,72.6,65.7,99.9,68.3,62.7,90,87,76,30.10,30.00,13,2,13,0.00
2014-9-27,77.4,73.8,70.3,74.2,70.7,67.2,90,90,90,30.05,29.98,21,6,21,0.00
2014-9-28,76.3,74.1,72.5,73.2,71.0,69.4,90,90,90,30.03,29.93,11,3,13,0.00
2014-9-29,81.2,75.6,72.5,78.0,72.4,69.4,90,90,90,29.93,29.82,13,3,13,0.00
2014-9-30,77.9,74.0,70.5,74.7,70.8,67.4,90,90,86,29.91,29.84,14,2,14,0.00
2014-10-1,125.6,75.5,69.6,76.2,71.4,66.5,90,87,75,29.99,29.88,11,2,11,0.00
2014-10-2,84.3,78.8,72.6,80.4,75.5,69.5,90,90,86,30.05,29.97,11,3,12,0.00
2014-10-3,83.9,79.1,73.7,80.7,75.8,70.6,90,90,87,29.99,29.88,25,5,25,0.00
2014-10-4,73.7,67.8,63.5,70.6,53.0,38.5,90,63,33,30.04,29.95,24,8,24,0.00
2014-10-5,73.7,65.5,60.3,53.3,46.3,37.5,71,51,31,30.10,30.00,11,2,14,0.00
2014-10-6,78.5,71.0,59.4,68.2,62.5,51.5,90,75,64,30.07,29.99,13,2,13,0.00
2014-10-7,94.7,75.5,65.7,77.2,71.6,62.7,90,88,77,30.08,30.00,12,3,12,0.00
2014-10-8,83.5,76.5,70.5,78.5,72.4,67.4,90,88,75,30.15,30.04,8,2,10,0.00
2014-10-9,83.0,76.6,71.6,78.7,73.1,68.5,90,89,83,30.12,30.03,7,1,8,0.00
2014-10-10,84.0,78.7,71.3,78.7,74.8,68.2,90,88,81,30.08,30.00,10,2,10,0.00
2014-10-11,84.9,78.3,72.8,77.0,74.0,69.7,90,87,73,30.07,29.98,10,2,10,0.00
2014-10-12,82.8,78.3,72.6,79.4,74.8,69.4,90,89,82,30.05,29.98,14,3,14,0.00
2014-10-13,82.8,78.1,73.4,79.5,74.9,70.3,90,90,85,30.02,29.84,22,6,22,0.00
2014-10-14,81.1,73.0,68.4,77.9,67.2,57.5,90,82,63,29.97,29.78,26,7,26,0.00
2014-10-15,74.4,69.0,63.3,60.9,53.4,45.9,82,59,40,30.01,29.91,19,5,19,0.00
2014-10-16,77.5,69.3,62.8,59.5,53.2,46.6,85,58,36,30.01,29.92,14,4,14,0.00
2014-10-17,79.0,69.9,16.3,63.9,59.3,-45.6,90,71,49,30.03,29.94,12,2,12,0.00
2014-10-18,80.5,73.2,67.6,72.3,67.8,61.3,90,83,70,30.01,29.92,157,4,157,0.00
2014-10-19,75.8,66.7,60.2,61.6,56.7,49.4,90,72,41,30.10,30.01,17,4,17,0.00
2014-10-20,78.3,68.5,60.1,70.8,63.2,56.4,90,83,69,30.07,29.96,10,2,10,0.00
2014-10-21,79.6,69.4,62.8,66.2,60.1,53.9,87,73,43,30.03,29.93,11,2,11,0.00
2014-10-22,76.7,68.9,63.0,62.7,57.6,51.8,87,69,49,30.08,29.98,14,3,14,0.00
2014-10-23,74.8,64.2,55.8,55.8,52.4,43.5,89,68,35,30.10,29.99,19,2,19,0.00
2014-10-24,73.7,65.7,11.2,58.3,53.7,0.7,82,66,41,30.07,29.97,157,2,157,0.00
2014-10-25,77.9,67.3,58.2,61.7,54.9,46.8,79,66,38,30.08,30.00,11,2,14,0.00
2014-10-26,79.4,70.1,62.9,70.9,65.3,58.9,90,85,75,30.07,29.97,12,2,12,0.00
2014-10-27,79.8,71.9,66.5,72.5,68.0,63.5,90,88,76,30.09,30.01,9,2,9,0.00
2014-10-28,95.6,74.7,66.2,73.9,69.3,63.2,90,84,72,30.14,30.06,14,3,14,0.00
2014-10-29,81.4,74.2,56.7,73.9,70.4,53.8,90,88,76,30.10,29.97,18,2,18,0.00
2014-10-30,71.6,66.3,61.7,65.8,53.9,45.8,90,67,41,30.06,29.95,20,6,20,0.00
2014-10-31,72.7,63.5,56.5,55.6,50.6,43.2,79,64,39,30.03,29.89,35,6,35,0.00
2014-11-1,58.7,50.5,42.4,52.1,35.2,28.7,79,56,38,30.31,30.03,34,11,34,0.00
2014-11-2,65.3,53.6,43.2,42.9,36.2,25.0,83,56,22,30.39,30.27,27,4,27,0.00
2014-11-3,67.3,56.2,47.2,52.4,42.7,36.1,90,63,36,30.42,30.32,14,2,14,0.00
2014-11-4,72.7,62.4,50.7,64.7,56.6,40.4,90,82,66,30.33,30.22,12,2,12,0.00
2014-11-5,74.3,68.3,59.1,71.1,64.9,56.1,90,89,78,30.25,30.14,13,2,13,0.00
2014-11-6,76.3,69.0,60.9,73.1,65.7,55.2,90,89,79,30.16,30.01,16,3,17,0.00
2014-11-7,63.4,57.2,50.5,54.8,46.5,44.0,82,68,51,30.12,29.99,19,5,19,0.00
2014-11-8,59.2,55.3,51.2,51.1,48.7,45.6,87,78,68,30.03,29.93,27,2,27,0.00
2014-11-9,68.1,58.6,52.9,56.2,50.9,45.9,90,77,48,30.03,29.93,11,2,11,0.00
2014-11-10,70.0,60.1,53.3,56.6,52.5,48.1,90,77,52,30.06,29.96,8,2,8,0.00
2014-11-11,71.3,61.6,53.8,64.4,57.7,50.9,90,87,66,30.08,29.96,10,2,10,0.00
2014-11-12,75.4,65.1,57.6,71.0,62.0,54.7,90,90,83,30.09,30.00,157,2,157,0.00
2014-11-13,57.5,47.7,40.3,54.6,44.4,34.9,90,88,79,30.20,30.05,20,8,25,0.00
2014-11-14,52.8,43.7,35.8,35.2,27.4,22.4,82,55,31,30.27,30.16,20,7,24,0.00
2014-11-15,58.3,47.6,38.9,49.0,37.9,25.9,90,70,49,30.34,30.21,17,3,17,0.00
2014-11-16,69.9,61.0,48.2,66.8,57.8,44.1,90,89,82,30.23,29.90,17,4,17,0.00
2014-11-17,72.0,56.5,39.4,68.9,52.0,30.4,90,85,66,30.22,29.79,31,9,31,0.01
2014-11-18,44.6,38.8,31.8,31.4,21.4,13.2,75,52,30,30.44,30.21,29,9,29,0.00
2014-11-19,53.1,42.7,34.9,42.6,24.9,9.4,90,52,19,30.48,30.31,19,2,19,0.00
2014-11-20,63.5,50.8,39.5,51.3,44.8,36.8,90,81,60,30.34,30.21,10,1,10,0.00
2014-11-21,107.3,56.6,46.3,89.4,48.6,43.3,90,76,46,30.35,30.24,12,2,12,0.00
2014-11-22,67.1,58.0,51.6,60.1,53.0,42.1,90,84,69,30.30,29.96,17,3,17,0.27
2014-11-23,70.2,67.2,63.0,67.1,64.2,59.2,90,90,90,30.00,29.71,19,6,19,0.95
2014-11-24,72.3,68.6,62.6,69.0,65.6,59.6,90,90,90,29.99,29.74,17,3,17,0.67
2014-11-25,64.2,54.2,50.6,59.4,49.1,46.3,90,83,68,30.10,29.98,22,6,22,0.18
2014-11-26,62.7,54.0,43.8,53.2,41.0,31.8,84,63,37,30.24,30.06,26,7,26,0.00
2014-11-27,62.7,53.5,43.5,53.4,41.2,34.0,83,64,42,30.42,30.20,29,8,29,0.00
2014-11-28,55.3,45.8,38.9,41.0,35.8,29.3,88,70,38,30.43,30.27,19,3,19,0.00
2014-11-29,106.0,55.1,42.9,96.9,50.0,34.0,90,83,65,30.32,30.23,12,2,12,0.00
2014-11-30,67.6,61.9,51.8,64.6,58.9,49.0,90,90,90,30.32,30.23,21,4,21,0.00
2014-12-1,73.5,61.9,53.5,64.9,57.6,50.6,90,86,67,30.38,30.27,10,1,10,0.00
2014-12-2,75.3,63.9,57.0,67.7,60.1,54.1,90,87,75,30.30,30.17,10,1,10,0.00
2014-12-3,72.1,64.0,59.3,69.0,61.0,56.4,90,90,90,30.24,30.16,7,1,7,0.00
2014-12-4,72.7,64.8,60.0,68.4,61.7,57.1,90,90,85,30.27,30.17,10,1,10,0.00
2014-12-5,70.3,64.8,58.9,67.2,61.8,56.0,90,90,90,30.29,30.21,12,2,12,0.00
2014-12-6,74.4,66.3,60.9,71.3,63.3,58.0,90,90,90,30.24,30.13,13,2,13,0.00
2014-12-7,63.9,58.0,51.3,59.0,51.9,48.5,90,81,63,30.26,30.14,157,15,157,0.00
2014-12-8,60.0,54.5,47.4,52.4,50.1,44.3,90,85,74,30.24,30.16,157,6,157,0.00
2014-12-9,61.4,52.7,43.7,50.2,43.8,40.0,90,73,46,30.22,30.10,18,4,19,0.00
2014-12-10,55.7,48.1,40.4,43.1,38.8,34.9,88,71,51,30.25,30.12,19,6,19,0.00
2014-12-11,56.5,48.5,40.9,44.1,39.9,36.5,90,73,52,30.28,30.15,157,6,157,0.00
2014-12-12,63.7,51.1,6.3,49.8,40.1,-7.9,80,67,33,30.34,30.22,8,3,12,0.00
2014-12-13,63.4,54.0,45.3,50.9,43.1,34.0,86,67,44,30.28,30.14,11,3,13,0.00
2014-12-14,61.2,51.7,44.4,53.9,47.2,41.7,90,85,62,30.17,30.05,13,3,13,0.00
2014-12-15,66.9,57.1,45.5,63.9,53.5,42.7,90,88,74,30.13,30.05,8,2,10,0.00
2014-12-16,69.6,63.7,51.5,66.5,57.7,44.9,90,81,66,30.21,30.05,157,5,157,0.07
2014-12-17,57.6,51.5,45.4,50.2,46.2,42.6,90,82,67,30.27,30.15,11,3,13,0.00
2014-12-18,61.1,52.4,46.1,52.4,47.7,43.3,90,85,63,30.22,30.10,10,2,10,0.00
2014-12-19,116.7,52.3,48.9,51.1,47.3,43.3,90,84,67,30.25,30.06,157,3,157,0.38
2014-12-20,126.6,52.0,49.1,99.9,49.1,46.1,90,90,90,30.15,30.05,27,4,27,0.29
2014-12-21,55.6,54.8,53.4,52.7,51.9,50.5,90,90,90,30.10,29.98,11,3,13,0.00
2014-12-22,69.0,60.8,45.7,65.9,57.9,42.9,90,90,90,29.99,29.79,10,1,10,0.31
2014-12-23,73.2,67.4,64.2,70.1,64.3,42.9,90,90,90,29.82,29.65,24,5,26,1.04
2014-12-24,72.0,61.2,52.3,68.7,57.9,47.7,90,89,81,30.04,29.59,28,7,28,3.07
2014-12-25,56.6,49.2,44.4,48.7,42.8,38.9,90,79,54,30.28,30.02,21,4,157,0.00
2014-12-26,60.7,52.4,44.0,54.3,48.5,41.3,90,87,74,30.30,30.21,157,2,157,0.00
2014-12-27,126.1,58.0,50.9,99.9,54.7,47.1,90,89,82,30.27,30.13,11,2,11,0.00
2014-12-28,72.2,67.6,61.8,69.1,64.6,0.0,90,90,90,30.13,30.01,157,3,157,0.04
2014-12-29,68.2,61.4,58.3,62.0,58.5,55.4,90,90,90,30.13,30.00,16,2,16,0.94
2014-12-30,63.3,55.7,47.5,57.2,52.7,44.7,90,90,85,30.34,30.12,17,4,17,0.00
2014-12-31,54.4,49.6,45.7,51.4,46.8,42.9,90,90,90,30.40,30.27,19,6,19,0.00
2015-1-1,57.2,51.3,45.4,54.2,48.3,42.6,90,90,86,30.33,30.21,16,3,16,0.00
2015-1-2,66.9,59.7,52.8,63.9,56.7,49.8,90,90,89,30.26,30.15,13,2,13,0.00